TimeCDT,TemperatureF,Dew PointF,Humidity,Sea Level PressureIn,VisibilityMPH,Wind Direction,Wind SpeedMPH,Gust SpeedMPH,PrecipitationIn,Events,Conditions,WindDirDegrees,DateUTC
12:15 AM,73.4,62.6,69,29.65,10.0,South,11.5,19.6,N/A,Thunderstorm,Thunderstorm,180,2013-04-18 05:15:00
12:35 AM,71.6,62.6,73,29.62,10.0,South,13.8,20.7,N/A,,Mostly Cloudy,170,2013-04-18 05:35:00
12:55 AM,73.4,62.6,69,29.60,10.0,SSE,13.8,20.7,N/A,Thunderstorm,Thunderstorm,160,2013-04-18 05:55:00
1:15 AM,71.6,64.4,78,29.58,10.0,SSE,15.0,19.6,N/A,,Mostly Cloudy,160,2013-04-18 06:15:00
1:35 AM,73.4,64.4,73,29.58,10.0,South,12.7,18.4,N/A,,Overcast,170,2013-04-18 06:35:00
1:55 AM,73.4,64.4,73,29.56,10.0,South,15.0,24.2,N/A,,Overcast,170,2013-04-18 06:55:00
2:15 AM,73.4,64.4,73,29.58,10.0,South,16.1,26.5,N/A,,Overcast,190,2013-04-18 07:15:00
2:35 AM,75.2,62.6,65,29.58,10.0,South,13.8,25.3,N/A,Thunderstorm,Thunderstorm,190,2013-04-18 07:35:00
2:55 AM,71.6,62.6,73,29.64,10.0,WNW,19.6,27.6,N/A,Thunderstorm,Overcast,290,2013-04-18 07:55:00
3:15 AM,62.6,59.0,88,29.61,5.0,WSW,4.6,-,0.36,Thunderstorm,Thunderstorm,250,2013-04-18 08:15:00
3:35 AM,62.6,59.0,88,29.58,2.5,NW,11.5,-,0.97,Thunderstorm,Thunderstorm,310,2013-04-18 08:35:00
3:55 AM,62.6,59.0,88,29.58,1.5,ENE,4.6,-,1.68,Thunderstorm,Thunderstorm,70,2013-04-18 08:55:00
4:15 AM,62.6,59.0,88,29.58,9.0,East,5.8,-,0.12,Thunderstorm,Thunderstorm,90,2013-04-18 09:15:00
4:35 AM,62.6,59.0,88,29.60,10.0,ESE,4.6,-,0.14,Thunderstorm,Thunderstorm,110,2013-04-18 09:35:00
4:55 AM,62.6,59.0,88,29.59,8.0,NE,5.8,-,0.27,Thunderstorm,Overcast,40,2013-04-18 09:55:00
5:15 AM,62.6,59.0,88,29.58,2.5,ESE,5.8,-,0.51,Thunderstorm,Thunderstorm,110,2013-04-18 10:15:00
5:35 AM,62.6,60.8,94,29.58,3.0,SW,4.6,-,0.81,Thunderstorm,Overcast,220,2013-04-18 10:35:00
5:55 AM,62.6,60.8,94,29.59,4.0,SSW,12.7,17.3,1.61,Thunderstorm,Overcast,200,2013-04-18 10:55:00
6:15 AM,64.4,60.8,88,29.58,10.0,South,8.1,-,0.10,,Overcast,190,2013-04-18 11:15:00
6:35 AM,62.6,60.8,94,29.60,10.0,SW,8.1,-,0.17,,Overcast,230,2013-04-18 11:35:00
6:55 AM,62.6,59.0,88,29.64,9.0,West,17.3,24.2,0.17,,Overcast,270,2013-04-18 11:55:00
7:15 AM,55.4,51.8,88,29.65,9.0,West,8.1,-,0.02,,Overcast,270,2013-04-18 12:15:00
7:35 AM,55.4,51.8,88,29.65,10.0,West,9.2,-,0.02,,Overcast,280,2013-04-18 12:35:00
7:55 AM,53.6,50.0,88,29.68,10.0,West,9.2,-,0.02,,Overcast,260,2013-04-18 12:55:00
8:15 AM,53.6,48.2,82,29.68,10.0,West,9.2,17.3,0.01,,Overcast,280,2013-04-18 13:15:00
8:35 AM,51.8,48.2,88,29.71,10.0,West,13.8,-,0.01,,Overcast,270,2013-04-18 13:35:00
8:55 AM,48.2,46.4,93,29.74,8.0,West,20.7,27.6,0.03,,Overcast,280,2013-04-18 13:55:00
9:15 AM,46.4,44.6,93,29.72,10.0,WNW,18.4,-,0.03,,Overcast,290,2013-04-18 14:15:00
9:35 AM,46.4,42.8,87,29.74,10.0,WNW,19.6,24.2,0.04,,Overcast,290,2013-04-18 14:35:00
9:55 AM,46.4,42.8,87,29.75,7.0,West,16.1,20.7,0.05,,Overcast,280,2013-04-18 14:55:00
10:15 AM,44.6,41.0,87,29.76,9.0,WNW,17.3,26.5,N/A,,Overcast,290,2013-04-18 15:15:00
10:35 AM,44.6,39.2,81,29.79,10.0,WNW,19.6,25.3,N/A,,Overcast,290,2013-04-18 15:35:00
10:55 AM,42.8,37.4,81,29.80,7.0,WNW,16.1,27.6,N/A,,Overcast,290,2013-04-18 15:55:00
11:15 AM,42.8,37.4,81,29.81,10.0,WNW,15.0,21.9,N/A,,Overcast,300,2013-04-18 16:15:00
11:35 AM,42.8,37.4,81,29.79,10.0,WNW,13.8,21.9,0.02,,Overcast,300,2013-04-18 16:35:00
11:55 AM,41.0,37.4,87,29.80,10.0,WNW,17.3,24.2,0.02,,Overcast,300,2013-04-18 16:55:00
12:15 PM,41.0,35.6,81,29.78,10.0,NW,13.8,-,N/A,,Overcast,310,2013-04-18 17:15:00
12:35 PM,41.0,35.6,81,29.79,10.0,NW,17.3,25.3,N/A,,Overcast,310,2013-04-18 17:35:00
1:15 PM,41.0,35.6,81,29.81,10.0,WNW,16.1,23.0,N/A,,Overcast,300,2013-04-18 18:15:00
1:35 PM,39.2,35.6,87,29.81,10.0,NW,17.3,21.9,N/A,,Overcast,310,2013-04-18 18:35:00
1:55 PM,41.0,35.6,81,29.82,10.0,WNW,12.7,23.0,N/A,,Overcast,300,2013-04-18 18:55:00
2:15 PM,39.2,33.8,81,29.82,10.0,NW,15.0,23.0,N/A,,Overcast,310,2013-04-18 19:15:00
2:35 PM,41.0,35.6,81,29.83,10.0,WNW,12.7,23.0,N/A,,Overcast,300,2013-04-18 19:35:00
2:55 PM,41.0,33.8,76,29.84,10.0,NW,15.0,23.0,N/A,,Overcast,310,2013-04-18 19:55:00
3:35 PM,42.8,33.8,70,29.85,10.0,WNW,19.6,26.5,N/A,,Overcast,300,2013-04-18 20:35:00
3:55 PM,42.8,33.8,70,29.87,10.0,WNW,15.0,26.5,N/A,,Overcast,300,2013-04-18 20:55:00
4:15 PM,42.8,33.8,70,29.87,10.0,WNW,17.3,25.3,N/A,,Overcast,300,2013-04-18 21:15:00
4:35 PM,42.8,33.8,70,29.88,10.0,WNW,17.3,23.0,N/A,,Overcast,300,2013-04-18 21:35:00
4:55 PM,42.8,32.0,66,29.88,10.0,WNW,18.4,21.9,N/A,,Overcast,300,2013-04-18 21:55:00
5:15 PM,42.8,32.0,66,29.89,10.0,WNW,17.3,24.2,N/A,,Overcast,300,2013-04-18 22:15:00
5:35 PM,41.0,30.2,65,29.89,10.0,NW,18.4,23.0,N/A,,Overcast,310,2013-04-18 22:35:00
5:55 PM,41.0,30.2,65,29.90,10.0,NW,13.8,21.9,N/A,,Overcast,310,2013-04-18 22:55:00
6:15 PM,41.0,30.2,65,29.90,10.0,NW,17.3,21.9,N/A,,Overcast,310,2013-04-18 23:15:00
6:35 PM,41.0,30.2,65,29.90,10.0,NW,18.4,25.3,N/A,,Overcast,310,2013-04-18 23:35:00
6:55 PM,41.0,30.2,65,29.91,10.0,NW,11.5,-,N/A,,Overcast,310,2013-04-18 23:55:00
7:15 PM,41.0,30.2,65,29.91,10.0,NW,10.4,16.1,N/A,,Overcast,320,2013-04-19 00:15:00
7:35 PM,41.0,30.2,65,29.92,10.0,NW,10.4,-,N/A,,Overcast,320,2013-04-19 00:35:00
7:55 PM,41.0,32.0,70,29.92,10.0,NW,9.2,-,N/A,,Overcast,310,2013-04-19 00:55:00
8:15 PM,41.0,30.2,65,29.92,10.0,NW,12.7,21.9,N/A,,Overcast,310,2013-04-19 01:15:00
8:35 PM,41.0,30.2,65,29.94,10.0,NW,13.8,27.6,N/A,,Overcast,320,2013-04-19 01:35:00
8:55 PM,41.0,30.2,65,29.95,10.0,WNW,17.3,23.0,N/A,,Overcast,300,2013-04-19 01:55:00
9:15 PM,39.2,30.2,70,29.96,10.0,WNW,13.8,21.9,N/A,,Overcast,300,2013-04-19 02:15:00
9:35 PM,39.2,28.4,65,29.97,10.0,NW,13.8,21.9,N/A,,Overcast,310,2013-04-19 02:35:00
9:55 PM,39.2,30.2,70,29.98,10.0,NW,12.7,17.3,N/A,,Overcast,310,2013-04-19 02:55:00
10:35 PM,39.2,26.6,61,29.98,10.0,WNW,19.6,25.3,N/A,,Overcast,300,2013-04-19 03:35:00
10:55 PM,39.2,26.6,61,29.98,10.0,NW,19.6,24.2,N/A,,Overcast,310,2013-04-19 03:55:00
11:15 PM,39.2,26.6,61,29.98,10.0,WNW,18.4,27.6,N/A,,Overcast,300,2013-04-19 04:15:00
11:35 PM,37.4,26.6,65,29.98,10.0,WNW,18.4,21.9,N/A,,Overcast,300,2013-04-19 04:35:00
11:55 PM,37.4,26.6,65,29.99,10.0,NW,15.0,24.2,N/A,,Overcast,310,2013-04-19 04:55:00